Location: Newark
(44.1667°N, 8.2500°E)
Time: 02:59:24
(UTC+00:00)

Vanguard 1 - Visible Passes

Search period start: 08 December 2019 00:00
Search period end: 18 December 2019 00:00
Orbit: 652 x 3831 km, 34.3° (Epoch: 07 December)

Date Brightness Start Highest point End Pass type
(mag) Time Alt. Az. Time Alt. Az. Time Alt. Az.
08 Dec 14.2 00:12:58 10° SE 00:17:00 11° SE 00:21:01 10° ESE visible
08 Dec 13.6 02:23:20 15° SSW 02:39:37 34° SE 02:56:05 10° E visible
08 Dec 13.1 04:41:58 10° SW 05:04:01 55° SSE 05:19:03 10° E visible
09 Dec 14.0 00:31:56 15° SE 00:37:28 17° SE 00:48:58 10° E visible
09 Dec 13.4 02:44:46 19° SSW 03:00:33 41° SSE 03:17:42 10° E visible
09 Dec 13.0 05:02:56 10° WSW 05:25:14 58° S 05:40:04 10° E visible
10 Dec 13.8 00:53:02 21° SSE 00:57:58 23° SE 01:12:48 10° E visible
10 Dec 13.3 03:05:51 22° SSW 03:21:34 47° SSE 03:39:07 10° E visible
10 Dec 12.9 05:24:06 10° WSW 05:46:28 61° S 06:01:01 10° ESE visible
11 Dec 13.6 01:13:52 27° SSE 01:18:33 29° SE 01:35:27 10° E visible
11 Dec 13.2 03:26:40 23° SW 03:42:40 52° SSE 04:00:22 10° E visible
11 Dec 12.9 05:45:25 10° WSW 06:07:41 62° S 06:21:54 10° ESE visible
12 Dec 13.4 01:34:28 33° SSE 01:39:14 36° SE 01:57:31 10° E visible
12 Dec 13.1 03:47:15 23° SW 04:03:51 57° SSE 04:21:32 10° E visible
12 Dec 12.9 06:06:50 10° W 06:28:51 61° S 06:42:44 10° ESE visible
12 Dec 14.0 23:42:08 15° ESE 23:42:08 15° ESE 23:49:13 10° E visible
13 Dec 13.3 01:54:54 38° S 02:00:02 42° SSE 02:19:12 10° E visible
13 Dec 13.0 04:07:39 22° WSW 04:25:07 61° S 04:42:38 10° E visible
14 Dec 13.9 00:02:24 21° ESE 00:02:24 21° ESE 00:13:08 10° E visible
14 Dec 13.2 02:15:09 43° S 02:20:58 48° SSE 02:40:41 10° E visible
14 Dec 13.0 04:27:54 20° WSW 04:46:24 63° S 05:03:40 10° E visible
15 Dec 13.7 00:22:33 28° ESE 00:22:33 28° ESE 00:35:53 10° E visible
15 Dec 13.1 02:35:18 45° SSW 02:42:01 54° SSE 03:02:03 10° E visible
15 Dec 13.0 04:48:02 17° WSW 05:07:41 63° S 05:24:38 10° ESE visible
16 Dec 13.5 00:42:36 34° SE 00:42:36 34° SE 00:58:02 10° E visible
16 Dec 13.0 02:55:19 46° SSW 03:03:11 58° SSE 03:23:18 10° E visible
16 Dec 13.0 05:08:03 14° W 05:28:57 63° S 05:45:31 10° ESE visible
17 Dec 13.3 01:02:32 41° SE 01:02:32 41° SE 01:19:50 10° E visible
17 Dec 13.0 03:15:16 44° SW 03:24:26 62° S 03:44:29 10° E visible
17 Dec 13.0 05:27:59 11° W 05:50:08 60° SSW 06:06:18 10° ESE visible
17 Dec 14.1 23:09:42 13° E 23:09:42 13° E 23:12:33 10° E visible
